Regional Weather Roundup
Issued by NWS Goodland, KS

Home | Current Version | Previous Version | Text Only | Print | Product List | Glossary Off
Versions: 1 2 3 4 5 6 7 8 9 10 11 12 13 14 15 16 17 18 19 20 21 22 23 24 25 26 27 28 29 30 31 32 33 34 35 36 37 38 39 40 41 42 43 44 45 46 47 48 49 50

000
ASUS43 KGLD 170959
RWRGLD

GOODLAND FORECAST AREA HOURLY WEATHER ROUNDUP
NATIONAL WEATHER SERVICE GOODLAND KS
400 AM MDT THU APR 17 2014

...OFFICIAL OBSERVATIONS...

CITY           SKY/WX    TMP DP  RH WIND       PRES   REMARKS
GOODLAND KS    CLOUDY    32  30  92 E8        30.18R
HILL CITY KS   CLOUDY    33  26  75 NE12      30.23R
IMPERIAL NEB   CLOUDY    31  27  85 NE7       30.20S FOG
MCCOOK NEB     CLOUDY    32  27  81 NE13      30.21F
AKRON CO       CLOUDY    31  30  96 SE13      30.13R FOG
BURLINGTON CO  CLOUDY    35  31  85 E8        30.16R
LIMON CO       MOCLDY    35  33  92 S12       30.12F
$$

...UNOFFICIAL OBSERVATIONS...

CITY           SKY/WX    TMP DP  RH WIND       PRES   REMARKS
GOVE KS          N/A     35  32  89 NE7         N/A
LENORA KS        N/A     31  32 100 N10         N/A
LEOTI KS         N/A     42  32  69 E8          N/A
NORTON KS      CLOUDY    30  27  86 N9        30.20R
SHARON SPRINGS   N/A     38  32  79 CALM        N/A
WAKEENEY KS      N/A     33  26  74 MISG        N/A
KIT CARSON CO    N/A     39  32  76 MISG        N/A
$$



USA.gov is the U.S. government's official web portal to all federal, state and local government web resources and services.